TITAN 3C TRANSTAGE DEB, 1671

Orbit data source: Space-Track

TITAN 3C TRANSTAGE DEB, 1671 is space debris in LEO originally from a launch on Fri, 15 Oct 1965 UTC launched from the Air Force Eastern Test Range (AFETR). Debris objects in space refer to the collection of defunct objects orbiting the Earth. Examples of debris include non-operational satellites, rocket bodies, and fragments generated from explosions, collisions, or faulty payload assembly.

Loading next visibility...
Identifier
1671, 1965-082AJ
Orbit
LEO
Last TLE update
23 hours ago
Origin
Manufacturer
Unknown
Mission
Spacecraft
Bus & Motor
Unknown
Mass
Unknown
Launch date (UTC)
1965-10-15 (60 years ago)
Launch vehicle
Unknown
Launch site
Air Force Eastern Test Range (AFETR)
Object type
Payload
Rocket body
Debris
Shape & HBR
Unknown
Radar Cross Section
Medium (>0.1 m² and <1 m²)

Expand to show TLE details & history

TLE from 23 hours ago
0 TITAN 3C TRANSTAGE DEB
1 01671U 65082AJ  25181.38680782  .00000255  00000-0  50727-4 0  9992
2 01671  32.1618 305.2613 0052675 341.5548  18.3187 14.53628792135164
Epoch: 2025-06-30T09:17Z
TLE epoch observation values (Epoch: 2025-06-30T09:17:00.195Z)
Latitude
-0.00001°
Longitude
-112.68687°
Altitude
677.044 km
Speed
7.539 km/s
True Right ascension
20h 21m 02s
True Declination
0° 00' 00"
Sunlit
Object was in full shadow at epoch
Visualization orbit readout
Latitude
25.36276°
Longitude
-69.77667°
Altitude
695.561 km
Speed
7.522 km/s
Apparent Right ascension
02h 31m 50s
Apparent Declination
-13° 12' 28"
Sunlit
Object is in daylight
Visualization observer readout
Local Sidereal Time
20:14:11
Azimuth
97.464° ESE
Elevation
-11.776°
Doppler factor
1
Orbital elements
Apogee altitude
754.773 km
Perigee altitude
680.022 km
Semi-major axis
7,095.535 km
Eccentricity
0.00527
Inclination
32.1618°
RAAN
305.2613°
Arg. of periapsis
341.5548°
True anomaly
Unknown
Mean anomaly
18.3187°
Eccentric anomaly
Unknown
Mean motion
3.63133 °/min
Orbital period
99.14 mins
BSTAR
0.000050727
Loading maneuver chart data...
Loading SW <> Apogee altitude chart data...

TITAN 3C TRANSTAGE DEB Visibility forecast

Observer location: undefined°, undefined°

Span
Click to sort rows by Start time (UTC) header in descending order
Start Az.
Max El. time (UTC)
Max El. Az.
Max El.
End time (UTC)
End Az.
6 mins2025-07-01 11:54:02.743Z197.84° SSW2025-07-01 11:57:02.743Z154.088° SSE19.053°2025-07-01 12:00:02.743Z116.049° SE
7 mins2025-07-01 13:38:02.743Z227.657° WSW2025-07-01 13:41:02.743Z174.971° S28.788°2025-07-01 13:45:02.743Z115.147° SE
7 mins2025-07-01 15:23:02.743Z234.405° WSW2025-07-01 15:26:02.743Z179.461° S26.375°2025-07-01 15:30:02.743Z130.097° SE
4 mins2025-07-01 17:08:02.743Z227.48° WSW2025-07-01 17:10:02.743Z201.847° SSW15.099°2025-07-01 17:12:02.743Z177.031° S
|